When you browse on this site, cookies collect data to enhance your experience and personalize the content and advertising you see.
Visit our Privacy Policy to learn more. By continuing to use the site, you agree to this use of cookies and data.
  • In Österreich
  • Länderverzeichnis
  • Für 7 Tage
  • Wassertemperatur
  • Wetterkarte
  • News
  • Widgets
  • user-avatar
    Anmelden

    Stündliche Wetter Cardonal

    Heute, 14 Dezember, Samstag

    Zeit Temperatur Niederschläge Wind Luftdruck Luftfeuchtigkeit
    00:00 +12°C° 0 mm 1 m/S 598 mmHg 83%
    01:00 +12°C° 0 mm 1 m/S 597 mmHg 82%
    02:00 +11°C° 0 mm 1 m/S 597 mmHg 81%
    03:00 +11°C° 0 mm 1 m/S 597 mmHg 80%
    04:00 +11°C° 0 mm 1 m/S 597 mmHg 79%
    05:00 +11°C° 0 mm 1 m/S 596 mmHg 78%
    06:00 +12°C° 0 mm 1 m/S 598 mmHg 71%
    07:00 +14°C° 0 mm 1 m/S 599 mmHg 63%
    08:00 +16°C° 0 mm 1 m/S 600 mmHg 55%
    09:00 +19°C° 0 mm 1 m/S 600 mmHg 46%
    10:00 +18°C° 0 mm 0 m/S 601 mmHg 36%
    11:00 +20°C° 0 mm 0 m/S 601 mmHg 27%
    12:00 +21°C° 0 mm 0 m/S 600 mmHg 25%
    13:00 +21°C° 0 mm 0 m/S 600 mmHg 23%
    14:00 +22°C° 0 mm 0 m/S 599 mmHg 22%
    15:00 +21°C° 0 mm 1 m/S 598 mmHg 30%
    16:00 +19°C° 0 mm 1 m/S 598 mmHg 39%
    17:00 +16°C° 0 mm 1 m/S 597 mmHg 48%
    18:00 +15°C° 0 mm 1 m/S 597 mmHg 53%
    19:00 +15°C° 0 mm 1 m/S 597 mmHg 58%
    20:00 +13°C° 0 mm 0 m/S 597 mmHg 63%
    21:00 +13°C° 0 mm 1 m/S 597 mmHg 59%
    22:00 +13°C° 0 mm 1 m/S 597 mmHg 56%
    23:00 +13°C° 0 mm 1 m/S 597 mmHg 52%

    Morgen, 15 Dezember, Sonntag

    Zeit Temperatur Niederschläge Wind Luftdruck Luftfeuchtigkeit
    00:00 +13°C° 0 mm 1 m/S 597 mmHg 50%
    01:00 +12°C° 0 mm 1 m/S 596 mmHg 48%
    02:00 +12°C° 0 mm 1 m/S 596 mmHg 46%
    03:00 +12°C° 0 mm 1 m/S 596 mmHg 45%
    04:00 +12°C° 0 mm 2 m/S 596 mmHg 45%
    05:00 +10°C° 0 mm 2 m/S 596 mmHg 44%
    06:00 +13°C° 0 mm 2 m/S 597 mmHg 42%
    07:00 +15°C° 0 mm 2 m/S 598 mmHg 39%
    08:00 +16°C° 0 mm 2 m/S 599 mmHg 37%
    09:00 +18°C° 0 mm 2 m/S 600 mmHg 33%
    10:00 +20°C° 0 mm 2 m/S 600 mmHg 29%
    11:00 +23°C° 0 mm 2 m/S 601 mmHg 25%
    12:00 +24°C° 0 mm 2 m/S 600 mmHg 23%
    13:00 +24°C° 0 mm 2 m/S 600 mmHg 21%
    14:00 +25°C° 0 mm 2 m/S 599 mmHg 20%
    15:00 +23°C° 0 mm 2 m/S 598 mmHg 26%
    16:00 +20°C° 0 mm 1 m/S 597 mmHg 33%
    17:00 +18°C° 0 mm 1 m/S 596 mmHg 39%
    18:00 +16°C° 0 mm 1 m/S 597 mmHg 43%
    19:00 +16°C° 0 mm 1 m/S 597 mmHg 46%
    20:00 +14°C° 0 mm 0 m/S 597 mmHg 50%
    21:00 +15°C° 0 mm 1 m/S 597 mmHg 48%
    22:00 +14°C° 0 mm 1 m/S 597 mmHg 46%
    23:00 +14°C° 0 mm 1 m/S 597 mmHg 44%

    übermorgen, 16 Dezember, Montag

    Zeit Temperatur Niederschläge Wind Luftdruck Luftfeuchtigkeit
    00:00 +14°C° 0 mm 2 m/S 597 mmHg 45%
    01:00 +14°C° 0 mm 2 m/S 597 mmHg 47%
    02:00 +13°C° 0 mm 2 m/S 596 mmHg 48%
    03:00 +13°C° 0 mm 2 m/S 596 mmHg 50%
    04:00 +12°C° 0 mm 2 m/S 596 mmHg 53%
    05:00 +12°C° 0 mm 2 m/S 596 mmHg 56%
    06:00 +13°C° 0 mm 2 m/S 597 mmHg 53%
    07:00 +15°C° 0 mm 2 m/S 598 mmHg 49%
    08:00 +16°C° 0 mm 2 m/S 599 mmHg 46%
    09:00 +18°C° 0 mm 2 m/S 599 mmHg 42%
    10:00 +19°C° 0 mm 2 m/S 600 mmHg 38%
    11:00 +21°C° 0 mm 3 m/S 600 mmHg 34%
    12:00 +22°C° 0 mm 3 m/S 600 mmHg 31%
    13:00 +22°C° 0 mm 3 m/S 599 mmHg 29%
    14:00 +24°C° 0 mm 3 m/S 599 mmHg 26%
    15:00 +21°C° 0 mm 2 m/S 598 mmHg 32%
    16:00 +19°C° 0 mm 2 m/S 598 mmHg 38%
    17:00 +17°C° 0 mm 2 m/S 597 mmHg 44%
    18:00 +16°C° 0 mm 1 m/S 597 mmHg 50%
    19:00 +15°C° 0 mm 1 m/S 598 mmHg 57%
    20:00 +14°C° 0 mm 1 m/S 598 mmHg 64%
    21:00 +14°C° 0 mm 1 m/S 598 mmHg 65%
    22:00 +13°C° 0 mm 1 m/S 598 mmHg 67%
    23:00 +13°C° 0 mm 1 m/S 598 mmHg 68%

    17 Dezember, Dienstag

    Zeit Temperatur Niederschläge Wind Luftdruck Luftfeuchtigkeit
    00:00 +12°C° 0 mm 1 m/S 597 mmHg 68%
    01:00 +11°C° 0 mm 1 m/S 597 mmHg 68%
    02:00 +11°C° 0 mm 1 m/S 597 mmHg 68%
    03:00 +10°C° 0 mm 1 m/S 597 mmHg 73%
    04:00 +10°C° 0 mm 1 m/S 597 mmHg 78%
    05:00 +9°C° 0 mm 1 m/S 597 mmHg 83%
    06:00 +10°C° 0 mm 1 m/S 598 mmHg 82%
    07:00 +11°C° 0 mm 1 m/S 599 mmHg 82%
    08:00 +12°C° 0 mm 1 m/S 600 mmHg 82%
    09:00 +13°C° 0 mm 2 m/S 600 mmHg 78%
    10:00 +14°C° 0 mm 2 m/S 600 mmHg 75%
    11:00 +14°C° 0 mm 3 m/S 600 mmHg 71%
    12:00 +13°C° 0 mm 3 m/S 600 mmHg 72%
    13:00 +13°C° 0 mm 3 m/S 599 mmHg 74%
    14:00 +13°C° 0 mm 3 m/S 598 mmHg 76%
    15:00 +11°C° 0 mm 3 m/S 598 mmHg 79%
    16:00 +10°C° 0 mm 3 m/S 598 mmHg 82%
    17:00 +9°C° 0 mm 3 m/S 598 mmHg 85%
    18:00 +8°C° 0 mm 3 m/S 598 mmHg 84%
    19:00 +8°C° 0 mm 2 m/S 599 mmHg 82%
    20:00 +7°C° 0 mm 2 m/S 599 mmHg 81%
    21:00 +6°C° 0 mm 2 m/S 599 mmHg 81%
    22:00 +6°C° 0 mm 2 m/S 599 mmHg 81%
    23:00 +5°C° 0 mm 2 m/S 599 mmHg 80%

    18 Dezember, Mittwoch

    Zeit Temperatur Niederschläge Wind Luftdruck Luftfeuchtigkeit
    00:00 +5°C° 0 mm 2 m/S 599 mmHg 82%
    01:00 +5°C° 0 mm 2 m/S 599 mmHg 83%
    02:00 +4°C° 0 mm 2 m/S 599 mmHg 85%
    03:00 +4°C° 0 mm 2 m/S 599 mmHg 86%
    04:00 +4°C° 0 mm 2 m/S 599 mmHg 87%
    05:00 +4°C° 0 mm 2 m/S 599 mmHg 89%
    06:00 +4°C° 0 mm 2 m/S 599 mmHg 88%
    07:00 +4°C° 0 mm 2 m/S 600 mmHg 87%
    08:00 +4°C° 0 mm 2 m/S 600 mmHg 86%
    09:00 +5°C° 0 mm 2 m/S 600 mmHg 80%
    10:00 +6°C° 0 mm 2 m/S 600 mmHg 74%
    11:00 +7°C° 0 mm 2 m/S 601 mmHg 68%
    12:00 +8°C° 0 mm 3 m/S 600 mmHg 67%
    13:00 +8°C° 0 mm 3 m/S 600 mmHg 65%
    14:00 +9°C° 0 mm 3 m/S 599 mmHg 63%
    15:00 +8°C° 0 mm 3 m/S 599 mmHg 66%
    16:00 +7°C° 0 mm 3 m/S 599 mmHg 70%
    17:00 +5°C° 0 mm 2 m/S 598 mmHg 73%
    18:00 +5°C° 0 mm 2 m/S 599 mmHg 76%
    19:00 +4°C° 0 mm 2 m/S 599 mmHg 78%
    20:00 +5°C° 0 mm 1 m/S 599 mmHg 81%
    21:00 +5°C° 0 mm 1 m/S 599 mmHg 82%
    22:00 +5°C° 0 mm 1 m/S 599 mmHg 82%
    23:00 +5°C° 0 mm 1 m/S 599 mmHg 83%

    19 Dezember, Donnerstag

    Zeit Temperatur Niederschläge Wind Luftdruck Luftfeuchtigkeit
    00:00 +5°C° 0 mm 1 m/S 598 mmHg 84%
    01:00 +5°C° 0 mm 1 m/S 598 mmHg 85%
    02:00 +5°C° 0 mm 1 m/S 598 mmHg 86%
    03:00 +5°C° 0 mm 1 m/S 598 mmHg 87%
    04:00 +5°C° 0 mm 1 m/S 598 mmHg 89%
    05:00 +4°C° 0 mm 0 m/S 597 mmHg 91%
    06:00 +6°C° 0 mm 1 m/S 598 mmHg 85%
    07:00 +8°C° 0 mm 1 m/S 599 mmHg 79%
    08:00 +9°C° 0 mm 1 m/S 600 mmHg 73%
    09:00 +11°C° 0 mm 1 m/S 600 mmHg 66%
    10:00 +14°C° 0 mm 1 m/S 601 mmHg 60%
    11:00 +16°C° 0 mm 1 m/S 601 mmHg 53%
    12:00 +18°C° 0 mm 1 m/S 601 mmHg 50%
    13:00 +18°C° 0 mm 2 m/S 601 mmHg 48%
    14:00 +19°C° 0 mm 2 m/S 600 mmHg 45%
    15:00 +17°C° 0 mm 2 m/S 600 mmHg 53%
    16:00 +15°C° 0 mm 2 m/S 599 mmHg 62%
    17:00 +13°C° 0 mm 2 m/S 598 mmHg 71%
    18:00 +12°C° 0 mm 1 m/S 598 mmHg 76%
    19:00 +12°C° 0 mm 1 m/S 599 mmHg 80%
    20:00 +10°C° 0 mm 0 m/S 599 mmHg 85%
    21:00 +10°C° 0 mm 0 m/S 599 mmHg 85%
    22:00 +9°C° 0 mm 0 m/S 599 mmHg 85%
    23:00 +9°C° 0 mm 0 m/S 599 mmHg 85%
    Mehr zeigen